This demonstration page uses our WeatherBlox Daily Observations layout. Learn more.

Left ArrowRight Arrow

39.12711, -84.51439

Hourly Observations for January 9, 2022

Temp ( °F °C ) Dew Point ( °F °C ) Humidity (%) Winds ( mph kmh ) Pressure ( in mb ) Visibility ( mi km ) Precip ( " mm )
12:53 am 00:53 Cloudy with Light Rain 41 5 32 0 70 70 S 7 11 30.14 1021 10 16 0.00 0.00
1:48 am 01:48 Cloudy with Light Rain 43 6 32 0 66 66 SSW 10 17 30.13 1020 10 16 0.01 0.25
1:53 am 01:53 Cloudy with Light Rain 43 6.1 32 0 65 65 SSW 13 20 30.12 1020 10 16 0.01 0.25
2:03 am 02:03 Cloudy 44 6.7 32 0 63 63 S 14 22 30.11 1020 10 16 0.00 0.00
2:21 am 02:21 Cloudy 44 6.7 32 0 63 63 S 18 30 30.09 1019 10 16 0.00 0.00
2:53 am 02:53 Cloudy with Light Rain 44 6.7 32 0 63 63 SSW 17 28 30.10 1019 10 16 0.00 0.00
3:53 am 03:53 Cloudy with Rain 42 5.6 32 0 68 68 SSW 16 26 30.09 1019 5 8 0.10 2.54
4:53 am 04:53 Cloudy with Rain 43 6.1 32 0 65 65 SSW 15 24 30.07 1018 5 8 0.14 3.56
5:14 am 05:14 Cloudy with Heavy Rain 43 6.1 32 0 65 65 W 9 15 30.12 1020 3 5 0.10 2.54
5:32 am 05:32 Cloudy with Rain 43 6.1 32 0 65 65 W 8 13 30.14 1020 2 3 0.20 5.08
5:38 am 05:38 Cloudy with Light Rain 43 6.1 32 0 65 65 W 6 9 30.14 1020 4 6 0.20 5.08
5:53 am 05:53 Cloudy with Rain 43 6.1 32 0 65 65 W 6 9 30.13 1020 3 5 0.24 6.10
6:04 am 06:04 Cloudy with Rain 43 6.1 31 -0.6 63 63 WSW 3 6 30.16 1021 4 6 0.02 0.51
6:26 am 06:26 Cloudy with Light Rain 43 6.1 31 -0.6 63 63 SW 6 9 30.15 1021 5 8 0.06 1.52
6:53 am 06:53 Cloudy with Light Rain 43 6.1 31 -0.6 63 63 SSW 10 17 30.12 1020 6 10 0.07 1.78
7:53 am 07:53 Cloudy with Light Rain 44 6.7 31 -0.6 60 60 SSW 6 9 30.12 1020 6 10 0.00 0.00
8:53 am 08:53 Cloudy 44 6.7 31 -0.6 60 60 SSW 8 13 30.13 1020 7 11 0.00 0.00
9:53 am 09:53 Cloudy with Light Rain 46 7.8 31 -0.6 56 56 SW 8 13 30.14 1021 6 10 0.00 0.00
10:45 am 10:45 Cloudy 46 7.8 31 -0.6 56 56 WSW 9 15 30.17 1022 10 16 0.01 0.25
10:53 am 10:53 Cloudy 46 7.8 31 -0.6 56 56 W 9 15 30.16 1021 10 16 0.01 0.25
11:53 am 11:53 Cloudy 44 6.7 32 0 63 63 NW 10 17 30.18 1022 10 16 0.00 0.00
12:53 pm 12:53 Cloudy 42 5.6 32 0 68 68 NW 15 24 30.20 1023 10 16 0.00 0.00
1:53 pm 13:53 Mostly Cloudy 39 3.9 32 0 76 76 NNW 12 19 30.24 1024 10 16 0.00 0.00
2:53 pm 14:53 Partly Cloudy 40 4.4 28 -2.2 63 63 NNW 9 15 30.27 1025 10 16 0.00 0.00
3:53 pm 15:53 Sunny 40 4.4 26 -3.3 58 58 WNW 8 13 30.29 1026 10 16 0.00 0.00
4:53 pm 16:53 Sunny 38 3.3 23 -5 55 55 NW 9 15 30.34 1027 10 16 0.00 0.00
5:53 pm 17:53 Clear 35 1.7 17 -8.3 48 48 NW 7 11 30.39 1029 10 16 0.00 0.00
6:53 pm 18:53 Clear 33 0.6 17 -8.3 52 52 WNW 8 13 30.44 1031 10 16 0.00 0.00
7:53 pm 19:53 Clear 32 0 14 -10 47 47 WNW 5 7 30.46 1032 10 16 0.00 0.00
8:53 pm 20:53 Clear 30 -1.1 13 -10.6 49 49 VRB 7 11 30.49 1033 10 16 0.00 0.00
9:53 pm 21:53 Clear 28 -2.2 11 -11.7 49 49 NNW 7 11 30.50 1033 10 16 0.00 0.00
10:53 pm 22:53 Clear 27 -2.8 11 -11.7 51 51 NW 7 11 30.52 1033 10 16 0.00 0.00
11:53 pm 23:53 Clear 26 -3.3 13 -10.6 57 57 NW 7 11 30.53 1034 10 16 0.00 0.00

Powered by AerisWeather